Time,TemperatureF,DewpointF,PressureIn,WindDirection,WindDirectionDegrees,WindSpeedMPH,WindSpeedGustMPH,Humidity,HourlyPrecipIn,Conditions,Clouds,dailyrainin,SoftwareType,DateUTC
2013-01-26 00:00:00,42.0,39.0,-100.00,NNE,17,0.0,-999.0,88,0.00,,,0.00,,2013-01-26 06:00:00,
2013-01-26 00:32:00,42.0,39.0,-100.00,NNE,17,0.0,-999.0,88,0.00,,,0.00,,2013-01-26 06:32:00,
2013-01-26 00:42:00,42.0,39.0,-100.00,NNE,17,0.0,-999.0,88,0.00,,,0.00,,2013-01-26 06:42:00,
2013-01-26 00:52:00,42.0,39.0,-100.00,NNE,17,0.0,-999.0,88,0.00,,,0.00,,2013-01-26 06:52:00,
2013-01-26 01:00:00,42.0,40.0,-100.00,NNE,14,1.0,-999.0,90,0.00,,,0.00,,2013-01-26 07:00:00,
2013-01-26 01:33:00,42.0,40.0,-100.00,NNE,14,1.0,-999.0,90,0.00,,,0.00,,2013-01-26 07:33:00,
2013-01-26 01:42:00,42.0,40.0,-100.00,NNE,14,1.0,-999.0,90,0.00,,,0.00,,2013-01-26 07:42:00,
2013-01-26 01:52:00,42.0,40.0,-100.00,NNE,14,1.0,-999.0,90,0.00,,,0.00,,2013-01-26 07:52:00,
2013-01-26 02:00:00,43.0,40.0,-100.00,North,10,1.0,-999.0,89,0.00,,,0.00,,2013-01-26 08:00:00,
2013-01-26 02:32:00,43.0,40.0,-100.00,North,10,1.0,-999.0,89,0.00,,,0.00,,2013-01-26 08:32:00,
2013-01-26 02:42:00,43.0,40.0,-100.00,North,10,1.0,-999.0,89,0.00,,,0.00,,2013-01-26 08:42:00,
2013-01-26 02:54:00,43.0,40.0,-100.00,North,10,1.0,-999.0,89,0.00,,,0.00,,2013-01-26 08:54:00,
2013-01-26 03:00:00,44.0,40.0,-100.00,South,180,0.0,-999.0,88,0.00,,,0.00,,2013-01-26 09:00:00,
2013-01-26 03:32:00,44.0,40.0,-100.00,South,180,0.0,-999.0,88,0.00,,,0.00,,2013-01-26 09:32:00,
2013-01-26 03:42:00,44.0,40.0,-100.00,South,180,0.0,-999.0,88,0.00,,,0.00,,2013-01-26 09:42:00,
2013-01-26 03:52:00,44.0,40.0,-100.00,South,180,0.0,-999.0,88,0.00,,,0.00,,2013-01-26 09:52:00,
2013-01-26 04:00:00,45.0,41.0,-100.00,SE,136,3.0,-999.0,84,0.00,,,0.00,,2013-01-26 10:00:00,
2013-01-26 04:32:00,45.0,41.0,-100.00,SE,136,3.0,-999.0,84,0.00,,,0.00,,2013-01-26 10:32:00,
2013-01-26 04:42:00,45.0,41.0,-100.00,SE,136,3.0,-999.0,84,0.00,,,0.00,,2013-01-26 10:42:00,
2013-01-26 04:52:00,45.0,41.0,-100.00,SE,136,3.0,-999.0,84,0.00,,,0.00,,2013-01-26 10:52:00,
2013-01-26 05:00:00,45.0,40.0,-100.00,SE,136,7.0,-999.0,82,0.00,,,0.00,,2013-01-26 11:00:00,
2013-01-26 05:32:00,45.0,40.0,-100.00,SE,136,7.0,-999.0,82,0.00,,,0.00,,2013-01-26 11:32:00,
2013-01-26 05:42:00,45.0,40.0,-100.00,SE,136,7.0,-999.0,82,0.00,,,0.00,,2013-01-26 11:42:00,
2013-01-26 05:52:00,45.0,40.0,-100.00,SE,136,7.0,-999.0,82,0.00,,,0.00,,2013-01-26 11:52:00,
2013-01-26 06:00:00,45.0,40.0,-100.00,ESE,108,2.0,-999.0,85,0.00,,,0.00,,2013-01-26 12:00:00,
2013-01-26 06:33:00,45.0,40.0,-100.00,ESE,108,2.0,-999.0,85,0.00,,,0.00,,2013-01-26 12:33:00,
2013-01-26 06:42:00,45.0,40.0,-100.00,ESE,108,2.0,-999.0,85,0.00,,,0.00,,2013-01-26 12:42:00,
2013-01-26 06:53:00,45.0,40.0,-100.00,ESE,108,2.0,-999.0,85,0.00,,,0.00,,2013-01-26 12:53:00,
2013-01-26 07:00:00,44.0,40.0,-100.00,SE,127,3.0,-999.0,86,0.00,,,0.00,,2013-01-26 13:00:00,
2013-01-26 07:33:00,44.0,40.0,-100.00,SE,127,3.0,-999.0,86,0.00,,,0.00,,2013-01-26 13:33:00,
2013-01-26 07:42:00,44.0,40.0,-100.00,SE,127,3.0,-999.0,86,0.00,,,0.00,,2013-01-26 13:42:00,
2013-01-26 07:53:00,44.0,40.0,-100.00,SE,127,3.0,-999.0,86,0.00,,,0.00,,2013-01-26 13:53:00,
2013-01-26 08:00:00,44.0,40.0,-100.00,ESE,106,5.0,-999.0,87,0.00,,,0.00,,2013-01-26 14:00:00,
2013-01-26 08:32:00,44.0,40.0,-100.00,ESE,106,5.0,-999.0,87,0.00,,,0.00,,2013-01-26 14:32:00,
2013-01-26 08:43:00,44.0,40.0,-100.00,ESE,106,5.0,-999.0,87,0.00,,,0.00,,2013-01-26 14:43:00,
2013-01-26 08:53:00,44.0,40.0,-100.00,ESE,106,5.0,-999.0,87,0.00,,,0.00,,2013-01-26 14:53:00,
2013-01-26 09:00:00,45.0,40.0,-100.00,ESE,122,5.0,-999.0,84,0.00,,,0.00,,2013-01-26 15:00:00,
2013-01-26 09:32:00,45.0,40.0,-100.00,ESE,122,5.0,-999.0,84,0.00,,,0.00,,2013-01-26 15:32:00,
2013-01-26 09:43:00,45.0,40.0,-100.00,ESE,122,5.0,-999.0,84,0.00,,,0.00,,2013-01-26 15:43:00,
2013-01-26 09:53:00,45.0,40.0,-100.00,ESE,122,5.0,-999.0,84,0.00,,,0.00,,2013-01-26 15:53:00,
2013-01-26 10:00:00,45.0,40.0,-100.00,ESE,112,7.0,-999.0,83,0.00,,,0.00,,2013-01-26 16:00:00,
2013-01-26 10:33:00,45.0,40.0,-100.00,ESE,112,7.0,-999.0,83,0.00,,,0.00,,2013-01-26 16:33:00,
2013-01-26 10:43:00,45.0,40.0,-100.00,ESE,112,7.0,-999.0,83,0.00,,,0.00,,2013-01-26 16:43:00,
2013-01-26 10:53:00,45.0,40.0,-100.00,ESE,112,7.0,-999.0,83,0.00,,,0.00,,2013-01-26 16:53:00,
2013-01-26 11:00:00,45.0,39.0,-100.00,ESE,123,10.0,-999.0,80,0.00,,,0.00,,2013-01-26 17:00:00,
2013-01-26 11:33:00,45.0,39.0,-100.00,ESE,123,10.0,-999.0,80,0.00,,,0.00,,2013-01-26 17:33:00,
2013-01-26 11:42:00,45.0,39.0,-100.00,ESE,123,10.0,-999.0,80,0.00,,,0.00,,2013-01-26 17:42:00,
2013-01-26 11:53:00,45.0,39.0,-100.00,ESE,123,10.0,-999.0,80,0.00,,,0.00,,2013-01-26 17:53:00,
2013-01-26 12:00:00,46.0,39.0,-100.00,SE,131,7.0,-999.0,78,0.00,,,0.00,,2013-01-26 18:00:00,
2013-01-26 12:33:00,46.0,39.0,-100.00,SE,131,7.0,-999.0,78,0.00,,,0.00,,2013-01-26 18:33:00,
2013-01-26 12:42:00,46.0,39.0,-100.00,SE,131,7.0,-999.0,78,0.00,,,0.00,,2013-01-26 18:42:00,
2013-01-26 12:53:00,46.0,39.0,-100.00,SE,131,7.0,-999.0,78,0.00,,,0.00,,2013-01-26 18:53:00,
2013-01-26 13:00:00,47.0,40.0,-100.00,SE,130,7.0,-999.0,76,0.00,,,0.00,,2013-01-26 19:00:00,
2013-01-26 13:32:00,47.0,40.0,-100.00,SE,130,7.0,-999.0,76,0.00,,,0.00,,2013-01-26 19:32:00,
2013-01-26 13:43:00,47.0,40.0,-100.00,SE,130,7.0,-999.0,76,0.00,,,0.00,,2013-01-26 19:43:00,
2013-01-26 13:53:00,47.0,40.0,-100.00,SE,130,7.0,-999.0,76,0.00,,,0.00,,2013-01-26 19:53:00,
2013-01-26 14:00:00,47.0,40.0,-100.00,ESE,109,5.0,-999.0,76,0.00,,,0.00,,2013-01-26 20:00:00,
2013-01-26 14:32:00,47.0,40.0,-100.00,ESE,109,5.0,-999.0,76,0.00,,,0.00,,2013-01-26 20:32:00,
2013-01-26 14:42:00,47.0,40.0,-100.00,ESE,109,5.0,-999.0,76,0.00,,,0.00,,2013-01-26 20:42:00,
2013-01-26 14:52:00,47.0,40.0,-100.00,ESE,109,5.0,-999.0,76,0.00,,,0.00,,2013-01-26 20:52:00,
2013-01-26 15:00:00,47.0,40.0,-100.00,East,100,7.0,-999.0,77,0.00,,,0.00,,2013-01-26 21:00:00,
2013-01-26 15:32:00,47.0,40.0,-100.00,East,100,7.0,-999.0,77,0.00,,,0.00,,2013-01-26 21:32:00,
2013-01-26 15:43:00,47.0,40.0,-100.00,East,100,7.0,-999.0,77,0.00,,,0.00,,2013-01-26 21:43:00,
2013-01-26 15:52:00,47.0,40.0,-100.00,East,100,7.0,-999.0,77,0.00,,,0.00,,2013-01-26 21:52:00,
2013-01-26 16:00:00,47.0,41.0,-100.00,ESE,119,4.0,-999.0,79,0.00,,,0.00,,2013-01-26 22:00:00,
2013-01-26 16:32:00,47.0,41.0,-100.00,ESE,119,4.0,-999.0,79,0.00,,,0.00,,2013-01-26 22:32:00,
2013-01-26 16:42:00,47.0,41.0,-100.00,ESE,119,4.0,-999.0,79,0.00,,,0.00,,2013-01-26 22:42:00,
2013-01-26 16:52:00,47.0,41.0,-100.00,ESE,119,4.0,-999.0,79,0.00,,,0.00,,2013-01-26 22:52:00,
2013-01-26 17:00:00,45.0,42.0,-100.00,SE,124,7.0,-999.0,87,0.00,,,0.00,,2013-01-26 23:00:00,
2013-01-26 17:32:00,45.0,42.0,-100.00,SE,124,7.0,-999.0,87,0.00,,,0.00,,2013-01-26 23:32:00,
2013-01-26 17:42:00,45.0,42.0,-100.00,SE,124,7.0,-999.0,87,0.00,,,0.00,,2013-01-26 23:42:00,
2013-01-26 17:52:00,45.0,42.0,-100.00,SE,124,7.0,-999.0,87,0.00,,,0.00,,2013-01-26 23:52:00,
2013-01-26 18:00:00,44.0,42.0,-100.00,ESE,108,4.0,-999.0,91,0.00,,,0.00,,2013-01-27 00:00:00,
2013-01-26 18:32:00,44.0,42.0,-100.00,ESE,108,4.0,-999.0,91,0.00,,,0.00,,2013-01-27 00:32:00,
2013-01-26 18:42:00,44.0,42.0,-100.00,ESE,108,4.0,-999.0,91,0.00,,,0.00,,2013-01-27 00:42:00,
2013-01-26 18:52:00,44.0,42.0,-100.00,ESE,108,4.0,-999.0,91,0.00,,,0.00,,2013-01-27 00:52:00,
2013-01-26 19:00:00,44.0,42.0,-100.00,ESE,110,3.0,-999.0,95,0.00,,,0.00,,2013-01-27 01:00:00,
2013-01-26 19:32:00,44.0,42.0,-100.00,ESE,110,3.0,-999.0,95,0.00,,,0.00,,2013-01-27 01:32:00,
2013-01-26 19:42:00,44.0,42.0,-100.00,ESE,110,3.0,-999.0,95,0.00,,,0.00,,2013-01-27 01:42:00,
2013-01-26 19:52:00,44.0,42.0,-100.00,ESE,110,3.0,-999.0,95,0.00,,,0.00,,2013-01-27 01:52:00,
2013-01-26 20:00:00,43.0,42.0,-100.00,ESE,117,5.0,-999.0,96,0.00,,,0.00,,2013-01-27 02:00:00,
2013-01-26 20:32:00,43.0,42.0,-100.00,ESE,117,5.0,-999.0,96,0.00,,,0.00,,2013-01-27 02:32:00,
2013-01-26 20:42:00,43.0,42.0,-100.00,ESE,117,5.0,-999.0,96,0.00,,,0.00,,2013-01-27 02:42:00,
2013-01-26 20:52:00,43.0,42.0,-100.00,ESE,117,5.0,-999.0,96,0.00,,,0.00,,2013-01-27 02:52:00,
2013-01-26 21:00:00,43.0,42.0,-100.00,SE,128,4.0,-999.0,97,0.00,,,0.00,,2013-01-27 03:00:00,
2013-01-26 21:42:00,43.0,42.0,-100.00,SE,128,4.0,-999.0,97,0.00,,,0.00,,2013-01-27 03:42:00,
2013-01-26 21:52:00,43.0,42.0,-100.00,SE,128,4.0,-999.0,97,0.00,,,0.00,,2013-01-27 03:52:00,
2013-01-26 22:00:00,43.0,43.0,-100.00,ESE,116,6.0,-999.0,99,0.00,,,0.00,,2013-01-27 04:00:00,
2013-01-26 22:32:00,43.0,43.0,-100.00,ESE,116,6.0,-999.0,99,0.00,,,0.00,,2013-01-27 04:32:00,
2013-01-26 22:42:00,43.0,43.0,-100.00,ESE,116,6.0,-999.0,99,0.00,,,0.00,,2013-01-27 04:42:00,
2013-01-26 22:52:00,43.0,43.0,-100.00,ESE,116,6.0,-999.0,99,0.00,,,0.00,,2013-01-27 04:52:00,
2013-01-26 23:00:00,43.0,42.0,-100.00,ESE,102,7.0,-999.0,99,0.00,,,0.00,,2013-01-27 05:00:00,
2013-01-26 23:32:00,43.0,42.0,-100.00,ESE,102,7.0,-999.0,99,0.00,,,0.00,,2013-01-27 05:32:00,
2013-01-26 23:42:00,43.0,42.0,-100.00,ESE,102,7.0,-999.0,99,0.00,,,0.00,,2013-01-27 05:42:00,
2013-01-26 23:52:00,43.0,42.0,-100.00,ESE,102,7.0,-999.0,99,0.00,,,0.00,,2013-01-27 05:52:00,